Flag for Turkey Weather past 2 weeks in Samsun, Turkey

Now
34 °F

Passing clouds.


Feels Like: 30 °F
Forecast: 41 / 57 °F
Wind: 5 mph from Southeast

Location: Samsun / Carsamba

Current Time: Jan 29, 2015 at 1:12:24 AM

Latest Report: Jan 29, 2015 at 12:50 AM


Visibility: 5 mi

Pressure: 29.80 "Hg

Humidity: 100%

Dew point: 34 °F

Location of SamsunLocation

Historic Weather in Samsun — Graph

°F

Samsun temperature yesterday

Maximum temperature yesterday: 59 °F (at 1:50 PM)
Minimum temperature yesterday: 36 °F (at 2:50 AM)
Average temperature yesterday: 46 °F

Past Weeks' High & Low Weather Summary

 TemperatureHumidityPressure
High68 °F (Jan 25, 12:50 PM)100% (Jan 14, 2:50 AM)30.39 "Hg (Jan 14, 2:50 AM)
Low28 °F (Jan 15, 6:50 AM)23% (Jan 25, 12:50 PM)29.74 "Hg (Jan 28, 12:50 PM)
Average45 °F73%30.13 "Hg
* Reported Jan 13 11:50 PM — Jan 28 11:50 PM, Samsun, Weather by CustomWeather, © 2014

Note: Actual official high and low records may vary slightly from our data, if they occured in-between our weather recording intervals... More about our weather records

Advertising

Samsun weather history for previous 24 hours

 ConditionsComfort  
Time TempWeatherWind HumidityBarometerVisibility
11:50 PM
Jan 28
37 °FPassing clouds.2 mph100%29.80 "Hg4 mi
10:50 PM41 °FPassing clouds.1 mph93%29.83 "Hg4 mi
9:50 PM41 °FPassing clouds.2 mph93%29.83 "Hg4 mi
8:50 PM41 °FPassing clouds.2 mph93%29.83 "Hg5 mi
7:50 PM45 °FPassing clouds.2 mph93%29.83 "HgN/A
6:50 PM46 °FPartly cloudy.3 mph87%29.83 "HgN/A
5:50 PM48 °FPartly cloudy.5 mph87%29.83 "HgN/A
4:50 PM52 °FPartly cloudy.10 mph67%29.80 "HgN/A
3:50 PM59 °FBroken clouds.7 mph42%29.77 "HgN/A
2:50 PM57 °FBroken clouds.7 mph48%29.77 "HgN/A
1:50 PM59 °FBroken clouds.12 mph42%29.74 "HgN/A
12:50 PM57 °FBroken clouds.12 mph41%29.74 "HgN/A
11:50 AM57 °FBroken clouds.9 mph41%29.77 "HgN/A
10:50 AM55 °FBroken clouds.3 mph44%29.80 "HgN/A
9:50 AM54 °FBroken clouds.7 mph54%29.80 "HgN/A
8:50 AM45 °FBroken clouds.2 mph93%29.80 "HgN/A
7:50 AM41 °FPartly sunny.2 mph100%29.77 "HgN/A
6:50 AM37 °FBroken clouds.2 mph100%29.77 "HgN/A
5:50 AM37 °FPartly cloudy.2 mph100%29.77 "Hg5 mi
4:50 AM37 °FPassing clouds.5 mph93%29.77 "Hg4 mi
3:50 AM36 °FPassing clouds.3 mph100%29.80 "Hg4 mi
2:50 AM36 °FFog.2 mph100%29.80 "Hg0 mi
1:50 AM37 °FFog.2 mph100%29.83 "Hg0 mi
Weather by CustomWeather, © 2014

See weather overviewHow to use our weather pages